Location: Holiday Acres Laynes 2 Mobile Home Park
(26.7249°N, 81.8671°W)
Time: 12:32:25
(UTC+00:00)

SL-16 R/B - Pass Details

Date: 25 November 2020
Orbit: 841 x 849 km, 71.0° (Epoch: 23 January)

Event Time Altitude Azimuth Distance (km) Brightness Sun altitude
Rises 23:14:12 0° 205° (SSW) 3,384 6.0 -9.1°
Reaches altitude 10° 23:16:40 10° 207° (SSW) 2,451 5.3 -9.7°
Maximum altitude 23:22:14 66° 290° (WNW) 915 2.6 -10.8°
Drops below altitude 10° 23:27:51 10° 12° (NNE) 2,458 4.3 -12.0°
Sets 23:30:19 0° 15° (NNE) 3,395 5.0 -12.6°
